Showing default

WREN-1, 60478

Orbit data source: Space-Track

WREN-1, 60478 is a payload satellite owned by C3S (HU) in SSO that was launched on Fri, 16 Aug 2024 UTC via an FALCON 9 launch vehicle from the Air Force Western Test Range (AFWTR). Payload-class satellites include a variety of spacecraft equipped with specific instruments for various scientific and technological missions. These include communications satellites like Starlink; space stations such as the ISS; scientific satellites like the Hubble; Earth observation satellites from companies like Planet Labs, Umbra, and HawkEye 360; GPS; miniature CubeSats for education and research; and military/defense satellites.

Loading next visibility...
Identifier
60478, 2024-149L
Orbit
SSO
Country
Flag of HUHU / HUN
Related business
Manufacturer
C3S
Mission
Operational Commercial Technology
Bus & Motor
CUBESAT 6U, Unknown motor
Mass
~10 kg wet, ~10 kg dry
Launch date (UTC)
2024-08-16 (1 year ago)
Launch vehicle
FALCON 9
Launch site
Air Force Western Test Range (AFWTR)
Object type
Payload
Rocket body
Debris
Shape & HBR
Box + 2 Pan, 0.4 m
Radar Cross Section
0.115 m², Medium (>0.1 m² and < 1m²)

Expand to show TLE details & history
Last TLE update: 14 hours ago

TLE from 14 hours ago
0 WREN-1
1 60478U 24149L   25289.15166067  .00011556  00000-0  38349-3 0  9991
2 60478  97.3999   7.3403 0006554  66.1422 294.0506 15.31378876 64859
Epoch: 2025-10-16T03:38Z
TLE epoch observation values (Epoch: 2025-10-16T03:38:23.481Z)
Latitude
-0.00001°
Longitude
-72.17303°
Altitude
472.976 km
Speed
7.63 km/s
True Right ascension
00h 29m 21s
True Declination
0° 00' 00"
Sunlit
Object was in full shadow at epoch
Visualization orbit readout
Latitude
Unknown
Longitude
Unknown
Altitude
Unknown
Speed
Unknown
Apparent Right ascension
Unknown
Apparent Declination
Unknown
Sunlit
N/A
Visualization observer readout
Local Sidereal Time
12:35:07
Azimuth
Unknown
Elevation
Unknown
Doppler factor
Unknown
Orbital elements
Apogee altitude
473.135 km
Perigee altitude
464.16 km
Semi-major axis
6,846.785 km
Eccentricity
0.00066
Inclination
97.3999°
RAAN
7.3403°
Arg. of periapsis
66.1422°
True anomaly
293.98199°
Mean anomaly
294.0506°
Eccentric anomaly
294.0163°
Mean motion
3.83101 °/min
Orbital period
93.97 mins
BSTAR
0.00038349
Loading maneuver chart data...
Computing Atmospheric mass density...
Loading historical data...
Loading historical data...
Loading historical data...
Loading historical data...
Loading historical data...
Loading historical data...
Loading historical data...

Documentation

Showing up to 5 results
|